This demonstration page uses our WeatherBlox Daily Observations layout. Learn more.

41.55636, -103.73856

Hourly Observations for May 13, 2015

Temp ( °F °C ) Dew Point ( °F °C ) Humidity (%) Winds ( mph kmh ) Pressure ( in mb ) Visibility ( mi km ) Precip ( " mm )
12:53 am 00:53 Clear 54 12 45 7 72 72 ESE 12 19 29.83 1010 10 16.09344 0 0
1:53 am 01:53 Clear 52 11 45 7 77 77 E 10 17 29.83 1010 10 16.09344 0 0
2:53 am 02:53 Clear 52 11 46 8 82 82 ESE 14 22 29.83 1010 10 16.09344 0 0
3:53 am 03:53 Clear 48 9 46 8 94 94 ESE 10 17 29.85 1011 10 16.09344 0 0
4:53 am 04:53 Clear 48 9 46 8 94 94 undefined N/A 29.85 1011 10 16.09344 0 0
5:53 am 05:53 Sunny 48 9 46 8 94 94 ESE 10 17 29.83 1010 10 16.09344 0 0
6:53 am 06:53 Sunny 50 10 46 8 88 88 SSE 7 11 29.85 1011 10 16.09344 0 0
7:53 am 07:53 Sunny 52 11 48 9 88 88 E 10 17 29.83 1010 10 16.09344 0 0
8:53 am 08:53 Sunny 55 13 48 9 77 77 SE 9 15 29.85 1011 10 16.09344 0 0
9:53 am 09:53 Partly Cloudy 55 13 48 9 77 77 Calm 29.85 1011 10 16.09344 0 0
10:53 am 10:53 Mostly Cloudy 57 14 50 10 77 77 W 13 20 29.83 1010 10 16.09344 0 0
11:53 am 11:53 Cloudy 57 14 48 9 72 72 SSE 6 9 29.83 1010 10 16.09344 0 0
12:53 pm 12:53 Cloudy 59 15 50 10 72 72 SSW 6 9 29.83 1010 10 16.09344 0.001 0.001
1:53 pm 13:53 Cloudy with Light Rain 59 15 52 11 77 77 E 7 11 29.83 1010 10 16.09344 0.001 0.001
2:53 pm 14:53 Sunny 63 17 52 11 68 68 Calm 29.8 1009 10 16.09344 0.001 0.001
3:53 pm 15:53 Cloudy 63 17 52 11 68 68 SE 9 15 29.8 1009 10 16.09344 0 0
4:53 pm 16:53 Cloudy 63 17 52 11 68 68 S 13 20 29.8 1009 10 16.09344 0 0
5:53 pm 17:53 Cloudy 61 16 50 10 68 68 S 9 15 29.8 1009 10 16.09344 0 0
6:53 pm 18:53 Mostly Cloudy 57 14 52 11 82 82 S 9 15 29.83 1010 10 16.09344 0 0
7:53 pm 19:53 Cloudy 57 14 50 10 77 77 SSE 6 9 29.83 1010 10 16.09344 0 0
8:53 pm 20:53 Mostly Cloudy 55 13 48 9 77 77 ESE 7 11 29.85 1011 10 16.09344 0 0
9:53 pm 21:53 Clear 52 11 48 9 88 88 E 8 13 29.88 1012 10 16.09344 0 0
10:53 pm 22:53 Partly Cloudy 50 10 48 9 94 94 E 6 9 29.88 1012 10 16.09344 0 0
11:53 pm 23:53 Mostly Cloudy 50 10 48 9 94 94 Calm 29.88 1012 10 16.09344 0 0

Powered by AerisWeather